This is the latest recevied weather packets stored in our database for station/object AC4AG. If no packets are shown the sender has not sent any weather packets the latest 10 day(s).
| Time | Temp. | Humidity | Pressure | Rain* | Wind** | Luminosity | Snow |
|---|---|---|---|---|---|---|---|
| 1777309037 | 22.78° C | 61% | 1015.9 hPa | 0 mm | - | 447 W/m² | - |
| 1777308734 | 22.78° C | 61% | 1016.1 hPa | 0 mm | - | 339 W/m² | - |
| 1777308434 | 22.78° C | 62% | 1016.3 hPa | 0 mm | - | 352 W/m² | - |
| 1777308130 | 22.78° C | 62% | 1016.1 hPa | 0 mm | - | 393 W/m² | - |
| 1777307827 | 23.33° C | 62% | 1016 hPa | 0 mm | - | 342 W/m² | - |
| 1777307524 | 22.78° C | 62% | 1016.3 hPa | 0 mm | - | 425 W/m² | - |
| 1777307221 | 22.78° C | 63% | 1016.3 hPa | 0 mm | - | 421 W/m² | - |
| 1777306918 | 22.78° C | 63% | 1016.3 hPa | 0 mm | - | 493 W/m² | - |
| 1777306615 | 22.78° C | 63% | 1016.3 hPa | 0 mm | - | 567 W/m² | - |
| 1777306310 | 22.78° C | 63% | 1016.7 hPa | 0 mm | - | 646 W/m² | - |
| 1777306006 | 22.78° C | 63% | 1016.7 hPa | 0 mm | - | 648 W/m² | - |
| 1777305703 | 22.22° C | 64% | 1016.8 hPa | 0 mm | - | 648 W/m² | - |
| 1777305399 | 22.22° C | 65% | 1016.8 hPa | 0 mm | - | 552 W/m² | - |
| 1777305093 | 22.22° C | 65% | 1016.9 hPa | 0 mm | - | 604 W/m² | - |
| 1777304788 | 22.22° C | 64% | 1016.9 hPa | 0 mm | - | 602 W/m² | - |
| 1777304486 | 22.22° C | 64% | 1016.9 hPa | 0 mm | - | 681 W/m² | - |
| 1777304184 | 22.22° C | 66% | 1017.1 hPa | 0 mm | - | 631 W/m² | - |
| 1777303880 | 22.22° C | 63% | 1016.8 hPa | 0 mm | - | 616 W/m² | - |
| 1777303577 | 21.67° C | 67% | 1017.3 hPa | 0 mm | - | 616 W/m² | - |
| 1777303274 | 21.67° C | 67% | 1017 hPa | 0 mm | - | 565 W/m² | - |
| 1777302972 | 21.67° C | 65% | 1017.3 hPa | 0 mm | - | 584 W/m² | - |
| 1777302668 | 21.67° C | 66% | 1017.4 hPa | 0 mm | - | 562 W/m² | - |
| 1777302367 | 20.56° C | 69% | 1017.4 hPa | 0 mm | - | 524 W/m² | - |
| 1777302065 | 20.56° C | 70% | 1017.1 hPa | 0 mm | - | 438 W/m² | - |
| 1777301763 | 20.56° C | 70% | 1017.7 hPa | 0 mm | - | 346 W/m² | - |
* Rain latest hour (hover to see other rain measurements)
** Current wind speed in m/s (hover to see current wind gust speed)